N7WWK-1 Weather Reports


Display with metric or nautical units.
time (UTC)temp
F
wind
direction
speed
MPH
gust
MPH
rain 1hr
in
rain 24hr
in
rain mn
in
humidity
%
barometer
mb
20260507115216 72 143 0.0 2.0 0.00 0.00 0.00 87 1013.0
20260507114217 71 156 1.0 4.0 0.00 0.00 0.00 88 1013.2
20260507113218 71 131 0.0 1.0 0.00 0.00 0.00 88 1013.2
20260507112005 71 151 1.0 3.0 0.00 0.00 0.00 89 1013.0
20260507111004 70 156 0.0 3.0 0.00 0.00 0.00 90 1013.1
20260507110005 70 161 0.0 1.0 0.00 0.00 0.00 91 1013.1
20260507105005 70 156 0.0 2.0 0.00 0.00 0.00 92 1013.3
20260507104004 70 120 0.0 2.0 0.00 0.00 0.00 93 1013.0
20260507103004 70 142 0.0 1.0 0.00 0.00 0.00 94 1012.8
20260507102006 70 152 0.0 3.0 0.00 0.00 0.00 94 1012.8
20260507101004 70 160 0.0 2.0 0.00 0.00 0.00 95 1012.8
20260507100005 70 146 0.0 3.0 0.00 0.00 0.00 95 1012.5
20260507095004 70 148 0.0 1.0 0.00 0.00 0.00 95 1012.5
20260507094005 70 155 0.0 0.0 0.00 0.00 0.00 95 1012.3
20260507093004 70 164 0.0 1.0 0.00 0.00 0.00 95 1012.6
20260507092004 70 161 0.0 1.0 0.00 0.00 0.00 94 1012.2
20260507091004 70 162 0.0 1.0 0.00 0.00 0.00 94 1012.2
20260507090006 70 145 0.0 1.0 0.00 0.00 0.00 93 1012.3
20260507085005 70 0 0.0 0.0 0.00 0.00 0.00 93 1012.0
20260507084004 70 151 0.0 2.0 0.00 0.00 0.00 93 1012.0
20260507083005 70 153 0.0 1.0 0.00 0.00 0.00 93 1011.7
20260507082004 70 147 0.0 1.0 0.00 0.00 0.00 93 1012.3
20260507081217 70 139 0.0 1.0 0.00 0.00 0.00 92 1012.4
20260507080005 70 0 0.0 0.0 0.00 0.00 0.00 92 1012.2
20260507075004 70 137 0.0 1.0 0.00 0.00 0.00 91 1012.5
20260507074004 71 0 0.0 0.0 0.00 0.00 0.00 90 1012.7
20260507073005 71 0 0.0 0.0 0.00 0.00 0.00 90 1012.5
20260507072216 71 0 0.0 0.0 0.00 0.00 0.00 89 1012.6
20260507071004 71 134 0.0 1.0 0.00 0.00 0.00 89 1012.3
20260507070009 71 134 0.0 1.0 0.00 0.00 0.00 89 1012.6
20260507065004 71 117 0.0 0.0 0.00 0.00 0.00 88 1012.8
20260507064215 71 120 0.0 1.0 0.00 0.00 0.00 88 1013.0
20260507063005 71 0 0.0 0.0 0.00 0.00 0.00 87 1012.9
20260507062004 72 115 0.0 1.0 0.00 0.00 0.00 87 1013.1
20260507061005 72 126 0.0 1.0 0.00 0.00 0.00 86 1013.4
20260507060005 72 0 0.0 0.0 0.00 0.00 0.00 85 1013.2
20260507055004 72 127 0.0 1.0 0.00 0.00 0.00 85 1013.4
20260507054005 72 130 0.0 1.0 0.00 0.00 0.00 84 1013.8
20260507053005 72 135 0.0 1.0 0.00 0.00 0.00 84 1013.9
20260507052218 72 133 0.0 1.0 0.00 0.00 0.00 84 1013.7
20260507051005 72 133 0.0 0.0 0.00 0.00 0.00 84 1014.0
20260507050214 72 133 0.0 1.0 0.00 0.00 0.00 83 1014.0
20260507045005 73 0 0.0 0.0 0.00 0.00 0.00 83 1014.2
20260507044005 73 134 0.0 1.0 0.00 0.00 0.00 82 1014.1
20260507043004 73 134 0.0 1.0 0.00 0.00 0.00 81 1014.1
20260507042004 74 0 0.0 0.0 0.00 0.00 0.00 80 1013.9
20260507041214 74 121 0.0 0.0 0.00 0.00 0.00 80 1014.0
20260507040021 74 132 0.0 1.0 0.00 0.00 0.00 80 1013.9
20260507035004 74 126 0.0 1.0 0.00 0.00 0.00 79 1013.8
20260507034005 74 148 0.0 1.0 0.00 0.00 0.00 78 1013.8
20260507033004 75 130 0.0 1.0 0.00 0.00 0.00 78 1014.1
20260507032214 75 147 0.0 1.0 0.00 0.00 0.00 78 1014.3
20260507031005 75 154 0.0 2.0 0.00 0.00 0.00 77 1014.0
20260507030005 76 132 0.0 2.0 0.00 0.00 0.00 77 1013.6
20260507025004 76 135 0.0 1.0 0.00 0.00 0.00 76 1013.8
20260507024217 76 163 0.0 2.0 0.00 0.00 0.00 75 1014.0
20260507023219 76 142 0.0 3.0 0.00 0.00 0.00 74 1014.0
20260507022214 77 137 0.0 1.0 0.00 0.00 0.00 73 1014.0
20260507021005 77 153 0.0 1.0 0.00 0.00 0.00 72 1013.7
20260507020005 77 0 0.0 0.0 0.00 0.00 0.00 72 1013.9
20260507015004 77 0 0.0 0.0 0.00 0.00 0.00 71 1014.0
20260507014218 77 121 0.0 1.0 0.00 0.00 0.00 71 1013.9
20260507013004 78 0 0.0 0.0 0.00 0.00 0.00 70 1013.8
20260507012004 79 0 0.0 0.0 0.00 0.00 0.00 69 1013.7
20260507011005 79 150 0.0 1.0 0.00 0.00 0.00 68 1013.9
20260507010005 80 0 0.0 0.0 0.00 0.00 0.00 67 1013.6
20260507005218 80 94 0.0 0.0 0.00 0.00 0.00 66 1013.7
20260507004004 81 123 0.0 2.0 0.00 0.00 0.00 66 1013.5
20260507003215 81 122 0.0 1.0 0.00 0.00 0.00 66 1013.1
20260507002005 81 160 1.0 3.0 0.00 0.00 0.00 65 1013.0
20260507001004 82 90 1.0 3.0 0.00 0.00 0.00 64 1012.5
20260507000219 82 108 1.0 3.0 0.00 0.00 0.00 64 1012.4
20260506235005 83 105 1.0 2.0 0.00 0.00 0.00 64 1012.3
20260506234004 84 105 1.0 3.0 0.00 0.00 0.00 64 1012.3
20260506233004 85 84 1.0 3.0 0.00 0.00 0.00 64 1012.6
20260506232005 85 116 1.0 6.0 0.00 0.00 0.00 64 1012.3
20260506231004 86 113 1.0 4.0 0.00 0.00 0.00 63 1012.4
20260506230005 89 124 1.0 3.0 0.00 0.00 0.00 60 1012.5
20260506225005 91 95 1.0 6.0 0.00 0.00 0.00 50 1012.4
20260506224005 92 138 1.0 2.0 0.00 0.00 0.00 47 1012.0
20260506223004 92 112 1.0 4.0 0.00 0.00 0.00 47 1012.4
20260506222004 92 119 1.0 2.0 0.00 0.00 0.00 47 1012.2
20260506221218 92 103 1.0 4.0 0.00 0.00 0.00 46 1012.1
20260506220005 94 126 1.0 3.0 0.00 0.00 0.00 45 1012.5
20260506215006 93 184 1.0 6.0 0.00 0.00 0.00 45 1012.4
20260506214004 94 141 1.0 3.0 0.00 0.00 0.00 44 1012.5
20260506213005 94 181 1.0 3.0 0.00 0.00 0.00 44 1012.6
20260506212218 94 182 1.0 6.0 0.00 0.00 0.00 42 1012.3
20260506211004 94 155 1.0 4.0 0.00 0.00 0.00 44 1012.6
20260506210005 94 175 2.0 6.0 0.00 0.00 0.00 43 1012.8
20260506205005 94 279 1.0 6.0 0.00 0.00 0.00 43 1012.7
20260506204004 94 177 1.0 2.0 0.00 0.00 0.00 46 1012.6
20260506203217 93 218 1.0 3.0 0.00 0.00 0.00 44 1012.7
20260506202004 93 169 2.0 6.0 0.00 0.00 0.00 47 1013.0
20260506201004 94 142 1.0 4.0 0.00 0.00 0.00 43 1013.1
20260506200005 94 122 1.0 3.0 0.00 0.00 0.00 44 1013.1
20260506195004 94 246 2.0 6.0 0.00 0.00 0.00 44 1013.0
20260506194217 93 213 1.0 3.0 0.00 0.00 0.00 46 1013.2
20260506193004 93 125 1.0 4.0 0.00 0.00 0.00 44 1013.4
20260506192004 94 148 1.0 3.0 0.00 0.00 0.00 45 1013.4
20260506191005 92 120 2.0 7.0 0.00 0.00 0.00 46 1013.9
20260506190006 94 240 1.0 3.0 0.00 0.00 0.00 45 1013.7
20260506185004 94 192 2.0 7.0 0.00 0.00 0.00 44 1013.9
20260506184005 92 197 1.0 4.0 0.00 0.00 0.00 46 1014.0
20260506183005 92 151 1.0 3.0 0.00 0.00 0.00 46 1014.1
20260506182004 91 197 2.0 3.0 0.00 0.00 0.00 46 1014.5
20260506181005 91 247 2.0 7.0 0.00 0.00 0.00 48 1014.5
20260506180006 91 154 2.0 4.0 0.00 0.00 0.00 48 1014.5
20260506175004 91 202 2.0 7.0 0.00 0.00 0.00 48 1014.5
20260506174004 90 166 1.0 3.0 0.00 0.00 0.00 49 1014.8
20260506173005 88 135 1.0 4.0 0.00 0.00 0.00 52 1015.0
20260506172004 89 148 1.0 3.0 0.00 0.00 0.00 53 1014.8
20260506171005 89 157 1.0 6.0 0.00 0.00 0.00 51 1014.8
20260506170005 89 225 2.0 7.0 0.00 0.00 0.00 52 1014.9
20260506165005 87 163 1.0 4.0 0.00 0.00 0.00 55 1015.2
20260506164005 89 190 1.0 6.0 0.00 0.00 0.00 54 1015.4
20260506163004 88 225 2.0 8.0 0.00 0.00 0.00 55 1015.3
20260506162004 88 212 1.0 3.0 0.00 0.00 0.00 53 1015.4
20260506161005 87 224 2.0 6.0 0.00 0.00 0.00 57 1015.5
20260506160005 85 143 1.0 3.0 0.00 0.00 0.00 57 1015.5
20260506155004 85 212 3.0 9.0 0.00 0.00 0.00 60 1015.7
20260506154004 86 152 1.0 6.0 0.00 0.00 0.00 59 1015.7
20260506153215 85 195 1.0 3.0 0.00 0.00 0.00 60 1015.6
20260506152005 84 197 2.0 4.0 0.00 0.00 0.00 61 1015.7
20260506151004 84 148 2.0 4.0 0.00 0.00 0.00 61 1015.6
20260506150005 83 159 2.0 6.0 0.00 0.00 0.00 63 1015.8
20260506145005 83 208 2.0 4.0 0.00 0.00 0.00 62 1015.6
20260506144215 83 197 1.0 4.0 0.00 0.00 0.00 65 1015.4
20260506143005 82 160 2.0 4.0 0.00 0.00 0.00 67 1015.5
20260506142004 81 211 2.0 6.0 0.00 0.00 0.00 69 1015.4
20260506141004 81 164 1.0 3.0 0.00 0.00 0.00 70 1015.6
20260506140005 80 196 2.0 7.0 0.00 0.00 0.00 71 1015.5
20260506135004 80 207 1.0 4.0 0.00 0.00 0.00 72 1015.3
20260506134004 79 133 1.0 3.0 0.00 0.00 0.00 74 1015.4
20260506133005 78 160 1.0 4.0 0.00 0.00 0.00 76 1015.1
20260506132005 76 191 2.0 6.0 0.00 0.00 0.00 78 1015.3
20260506131004 76 179 1.0 3.0 0.00 0.00 0.00 78 1015.1
20260506130005 75 145 1.0 3.0 0.00 0.00 0.00 79 1015.0
20260506125004 75 125 1.0 3.0 0.00 0.00 0.00 79 1014.8
20260506124216 74 152 1.0 6.0 0.00 0.00 0.00 80 1014.6
20260506123005 73 123 0.0 3.0 0.00 0.00 0.00 82 1014.9
20260506122218 71 134 0.0 2.0 0.00 0.00 0.00 84 1015.0
20260506121005 70 136 0.0 1.0 0.00 0.00 0.00 85 1015.0
20260506120005 69 157 0.0 2.0 0.00 0.00 0.00 87 1014.9